D1900 Weather Reports


Display with metric or nautical units.
time (UTC)temp
F
wind
direction
speed
MPH
gust
MPH
rain 1hr
in
rain 24hr
in
rain mn
in
humidity
%
barometer
mb
20260504160411 65 286 3.0 11.0 0.00 0.00 0.00 36 998.4
20260504150904 63 263 4.0 10.0 0.00 0.00 0.00 37 999.3
20260504150405 63 162 3.0 9.0 0.00 0.00 0.00 37 999.3
20260504140903 62 258 2.0 6.0 0.00 0.00 0.00 40 999.7
20260504140405 61 135 2.0 7.0 0.00 0.00 0.00 42 999.8
20260504130400 57 189 2.0 7.0 0.00 0.00 0.00 47 1000.4
20260504110340 47 173 1.0 3.0 0.00 0.00 0.00 61 1000.7
20260504110109 47 174 1.0 3.0 0.00 0.00 0.00 63 1000.7
20260504100339 43 185 1.0 2.0 0.00 0.00 0.00 69 1000.3
20260504081847 43 108 1.0 4.0 0.00 0.00 0.00 68 999.8
20260504081348 43 52 0.0 2.0 0.00 0.00 0.00 67 999.7
20260504080848 43 0 0.0 2.0 0.00 0.00 0.00 68 999.8
20260504080346 43 141 0.0 2.0 0.00 0.00 0.00 69 999.8
20260504070341 44 155 2.0 4.0 0.00 0.00 0.00 63 999.7
20260504050333 41 0 0.0 2.0 0.00 0.00 0.00 72 1000.0
20260504045832 41 0 0.0 2.0 0.00 0.00 0.00 67 999.9
20260504045330 41 168 0.0 2.0 0.00 0.00 0.00 65 1000.0
20260504044830 40 95 0.0 2.0 0.00 0.00 0.00 71 1000.1
20260504044331 40 0 0.0 2.0 0.00 0.00 0.00 72 1000.2
20260504043831 40 185 1.0 3.0 0.00 0.00 0.00 72 1000.2
20260504043332 40 0 2.0 4.0 0.00 0.00 0.00 74 1000.2
20260504042831 40 186 2.0 4.0 0.00 0.00 0.00 72 1000.1
20260504042328 40 172 1.0 3.0 0.00 0.00 0.00 73 1000.1
20260504042058 41 116 1.0 2.0 0.00 0.00 0.00 68 1000.1
20260504041327 41 132 2.0 2.0 0.00 0.00 0.00 70 1000.1
20260504040825 41 132 2.0 2.0 0.00 0.00 0.00 70 1000.1
20260504040327 41 156 1.0 1.0 0.00 0.00 0.00 71 1000.0
20260504035715 41 0 0.0 2.0 0.00 0.00 0.00 69 1000.0
20260504034944 41 0 1.0 2.0 0.00 0.00 0.00 69 999.9
20260504034444 41 168 1.0 2.0 0.00 0.00 0.00 70 999.8
20260504033944 41 106 0.0 2.0 0.00 0.00 0.00 72 999.8
20260504033443 42 0 0.0 2.0 0.00 0.00 0.00 67 999.7
20260504032944 42 112 1.0 2.0 0.00 0.00 0.00 69 999.8
20260504032444 42 0 1.0 2.0 0.00 0.00 0.00 68 999.8
20260504031944 41 160 0.0 2.0 0.00 0.00 0.00 69 999.9
20260504031444 42 145 1.0 2.0 0.00 0.00 0.00 71 999.8
20260504030940 41 117 1.0 2.0 0.00 0.00 0.00 69 999.8
20260504030440 41 138 0.0 2.0 0.00 0.00 0.00 67 999.8
20260504025940 41 0 1.0 2.0 0.00 0.00 0.00 68 999.8
20260504025447 42 0 0.0 2.0 0.00 0.00 0.00 69 999.7
20260504025440 42 0 1.0 2.0 0.00 0.00 0.00 70 999.8
20260504024710 43 96 0.0 2.0 0.00 0.00 0.00 68 999.7
20260504023939 43 74 0.0 3.0 0.00 0.00 0.00 64 999.7
20260504023438 43 0 1.0 3.0 0.00 0.00 0.00 64 999.7
20260504022939 44 320 0.0 2.0 0.00 0.00 0.00 62 999.6
20260504022439 44 0 1.0 2.0 0.00 0.00 0.00 61 999.6
20260504021935 44 0 1.0 3.0 0.00 0.00 0.00 61 999.6
20260504021706 44 112 1.0 3.0 0.00 0.00 0.00 60 999.5
20260504020934 45 160 1.0 3.0 0.00 0.00 0.00 58 999.5
20260504020433 45 159 1.0 3.0 0.00 0.00 0.00 58 999.4
20260504020204 45 0 2.0 4.0 0.00 0.00 0.00 58 999.4
20260504015433 45 177 2.0 4.0 0.00 0.00 0.00 57 999.4
20260504014934 45 181 2.0 4.0 0.00 0.00 0.00 56 999.3
20260504014436 46 193 0.0 4.0 0.00 0.00 0.00 50 999.2
20260504013934 46 0 0.0 1.0 0.00 0.00 0.00 49 999.2
20260504013434 46 0 0.0 1.0 0.00 0.00 0.00 48 999.2
20260504012934 46 0 0.0 1.0 0.00 0.00 0.00 48 999.1
20260504012434 46 0 0.0 1.0 0.00 0.00 0.00 51 999.1
20260504011933 46 0 0.0 1.0 0.00 0.00 0.00 51 999.1
20260504011434 46 0 0.0 1.0 0.00 0.00 0.00 51 999.0
20260504010934 47 0 0.0 1.0 0.00 0.00 0.00 48 998.9
20260504010430 47 233 0.0 1.0 0.00 0.00 0.00 46 998.8
20260504005930 47 0 0.0 1.0 0.00 0.00 0.00 45 998.7
20260504005430 47 0 0.0 1.0 0.00 0.00 0.00 45 998.7
20260504004928 47 0 0.0 1.0 0.00 0.00 0.00 46 998.6
20260504004428 47 0 0.0 1.0 0.00 0.00 0.00 46 998.5
20260504003929 47 0 0.0 1.0 0.00 0.00 0.00 49 998.4
20260504003428 48 0 0.0 1.0 0.00 0.00 0.00 46 998.4
20260504002929 48 0 0.0 1.0 0.00 0.00 0.00 46 998.3
20260504002429 49 21 0.0 1.0 0.00 0.00 0.00 43 998.2
20260504001929 49 323 0.0 1.0 0.00 0.00 0.00 43 998.1
20260504001428 50 0 0.0 1.0 0.00 0.00 0.00 41 998.0
20260504000929 50 0 0.0 2.0 0.00 0.00 0.00 40 997.9
20260504000431 51 0 1.0 3.0 0.00 0.00 0.00 41 997.9
20260503235926 51 24 1.0 3.0 0.00 0.00 0.00 40 997.8
20260503235425 52 0 1.0 4.0 0.00 0.00 0.00 38 997.8
20260503234923 52 345 2.0 4.0 0.00 0.00 0.00 38 997.8
20260503234428 53 289 1.0 5.0 0.00 0.00 0.00 37 997.7
20260503233924 53 269 2.0 7.0 0.00 0.00 0.00 36 997.7
20260503233424 53 307 3.0 7.0 0.00 0.00 0.00 36 997.7
20260503232924 53 328 2.0 7.0 0.00 0.00 0.00 37 997.7
20260503232654 54 286 3.0 9.0 0.00 0.00 0.00 36 997.6
20260503231921 54 309 3.0 9.0 0.00 0.00 0.00 35 997.6
20260503231423 54 321 4.0 11.0 0.00 0.00 0.00 35 997.5
20260503230914 55 347 5.0 11.0 0.00 0.00 0.00 34 997.5
20260503230649 55 316 3.0 11.0 0.00 0.00 0.00 34 997.5
20260503225915 55 342 4.0 10.0 0.00 0.00 0.00 35 997.5
20260503225419 55 338 4.0 10.0 0.00 0.00 0.00 34 997.5
20260503224915 54 291 4.0 13.0 0.00 0.00 0.00 36 997.5
20260503224418 54 299 5.0 13.0 0.00 0.00 0.00 38 997.4
20260503223915 54 316 6.0 13.0 0.00 0.00 0.00 36 997.3
20260503223418 54 332 6.0 11.0 0.00 0.00 0.00 36 997.4
20260503222915 53 334 7.0 15.0 0.00 0.00 0.00 37 997.3
20260503222417 53 301 9.0 15.0 0.00 0.00 0.00 37 997.3
20260503221914 53 330 7.0 13.0 0.00 0.00 0.00 36 997.3
20260503221418 53 320 6.0 13.0 0.00 0.00 0.00 38 997.4
20260503221140 53 342 7.0 13.0 0.00 0.00 0.00 39 997.4
20260503220411 53 322 9.0 13.0 0.00 0.00 0.00 38 997.4
20260503215910 53 320 9.0 14.0 0.00 0.00 0.00 38 997.4
20260503215411 53 330 9.0 15.0 0.00 0.00 0.00 39 997.5
20260503214910 52 329 9.0 15.0 0.00 0.00 0.00 39 997.4
20260503214411 52 8 9.0 15.0 0.00 0.00 0.00 39 997.4
20260503213910 52 325 9.0 15.0 0.00 0.00 0.00 40 997.4
20260503213411 52 325 9.0 23.0 0.00 0.00 0.00 41 997.4
20260503213140 52 306 10.0 23.0 0.00 0.00 0.00 38 997.3
20260503212411 53 330 10.0 23.0 0.00 0.00 0.00 40 997.3
20260503211908 53 318 9.0 14.0 0.00 0.00 0.00 41 997.3
20260503211410 53 333 8.0 14.0 0.00 0.00 0.00 43 997.4
20260503211140 52 306 8.0 14.0 0.00 0.00 0.00 40 997.2
20260503210409 52 329 7.0 14.0 0.00 0.00 0.00 40 997.2
20260503205909 52 290 7.0 13.0 0.00 0.00 0.00 40 997.0
20260503205409 51 1 8.0 16.0 0.00 0.00 0.00 41 997.1
20260503204909 52 309 9.0 18.0 0.00 0.00 0.00 39 997.1
20260503204408 52 345 8.0 18.0 0.00 0.00 0.00 40 997.1
20260503203908 52 352 7.0 13.0 0.00 0.00 0.00 43 997.0
20260503203409 51 347 6.0 12.0 0.00 0.00 0.00 41 997.1
20260503202909 51 55 8.0 13.0 0.00 0.00 0.00 41 997.1
20260503202640 51 4 9.0 17.0 0.00 0.00 0.00 41 997.1
20260503201909 51 22 8.0 17.0 0.00 0.00 0.00 41 997.1
20260503201409 51 348 6.0 11.0 0.00 0.00 0.00 41 997.0
20260503200905 52 289 6.0 11.0 0.00 0.00 0.00 40 997.0
20260503200405 52 340 7.0 13.0 0.00 0.00 0.00 40 997.0
20260503195906 52 340 9.0 14.0 0.00 0.00 0.00 40 996.9
20260503195410 52 358 10.0 18.0 0.00 0.00 0.00 40 997.0
20260503195136 51 336 9.0 18.0 0.00 0.00 0.00 43 996.9
20260503194638 51 331 8.0 15.0 0.00 0.00 0.00 40 996.8
20260503193906 51 329 9.0 15.0 0.00 0.00 0.00 40 996.8
20260503193637 51 321 9.0 15.0 0.00 0.00 0.00 39 996.9
20260503192906 51 342 8.0 15.0 0.00 0.00 0.00 40 996.8
20260503192406 51 322 9.0 18.0 0.00 0.00 0.00 40 996.8
20260503191904 51 327 9.0 18.0 0.00 0.00 0.00 41 996.8
20260503191406 52 337 8.0 13.0 0.00 0.00 0.00 41 996.8
20260503190901 51 317 7.0 13.0 0.00 0.00 0.00 40 996.8
20260503190402 51 337 7.0 17.0 0.00 0.00 0.00 42 996.9
20260503185902 51 345 7.0 17.0 0.00 0.00 0.00 41 996.8
20260503185402 51 5 8.0 17.0 0.00 0.00 0.00 40 996.8
20260503184901 51 314 8.0 15.0 0.00 0.00 0.00 42 996.9
20260503184403 51 317 8.0 14.0 0.00 0.00 0.00 42 996.8
20260503183901 51 9 8.0 17.0 0.00 0.00 0.00 44 997.0
20260503183402 51 321 10.0 20.0 0.00 0.00 0.00 41 996.8
20260503182901 52 333 9.0 20.0 0.00 0.00 0.00 41 996.9
20260503182404 51 338 8.0 17.0 0.00 0.00 0.00 42 996.9
20260503181901 51 351 8.0 17.0 0.00 0.00 0.00 44 997.0
20260503181632 51 327 8.0 15.0 0.00 0.00 0.00 46 996.9
20260503181130 51 301 7.0 15.0 0.00 0.00 0.00 47 997.0
20260503180359 51 313 7.0 16.0 0.00 0.00 0.00 45 996.8
20260503175900 50 301 9.0 16.0 0.00 0.00 0.00 44 996.9
20260503175359 50 303 10.0 16.0 0.00 0.00 0.00 45 997.1
20260503174900 50 317 11.0 19.0 0.00 0.00 0.00 44 996.9
20260503174400 51 286 10.0 19.0 0.00 0.00 0.00 44 996.9
20260503174131 50 333 9.0 17.0 0.00 0.00 0.00 45 996.8
20260503173400 50 327 9.0 17.0 0.00 0.00 0.00 46 996.8
20260503172900 50 321 10.0 19.0 0.00 0.00 0.00 46 996.8
20260503172400 50 318 11.0 23.0 0.00 0.00 0.00 45 996.7
20260503171857 50 316 9.0 23.0 0.00 0.00 0.00 43 996.9
20260503171404 50 7 8.0 13.0 0.00 0.00 0.00 48 996.8
20260503171358 50 356 8.0 13.0 0.00 0.00 0.00 46 997.0
20260503171250 50 343 8.0 18.0 0.00 0.00 0.00 46 996.7